Location: Boiro
(42.6475°N, 8.8834°W)
Time: 01:18:43
(UTC+01:00)

Explorer 7 - Pass Details

Date: 05 December 2021
Orbit: 483 x 674 km, 50.3° (Epoch: 23 January)

Event Time Altitude Azimuth Distance (km) Brightness Sun altitude
Rises 12:57:58 0° 297° (WNW) 2,622 10.0 24.6°
Reaches altitude 10° 13:00:16 10° 291° (WNW) 1,710 9.1 24.6°
Maximum altitude 13:03:56 43° 219° (SW) 693 8.3 24.7°
Drops below altitude 10° 13:07:29 10° 146° (SSE) 1,657 10.5 24.8°
Sets 13:09:41 0° 140° (SE) 2,530 11.0 24.8°
